Weather History for Mountain Home, ID

Change the Weather History Date:

Monday, March 11, 2013

  Actual Average Record
Temperature  
Mean Temperature 45 °F 42 °F  
Max Temperature 58 °F 53 °F 75 °F (2005)
Min Temperature 32 °F 29 °F 6 °F (1917)
Degree Days  
Heating Degree Days 20 24  
Month to date heating degree days 246 276  
Cooling Degree Days 0 0  
Month to date cooling degree days 0 0  
Moisture  
Dew Point 30 °F    
Average Humidity 47    
Maximum Humidity 64    
Minimum Humidity 38    
Precipitation  
Precipitation 0.00 in 0.04 in 0.34 in (1928)
Month to date precipitation 0.08 0.40  
Sea Level Pressure  
Sea Level Pressure 30.23 in    
Wind  
Wind Speed 15 mph (NW)    
Max Wind Speed 24 mph    
Max Gust Speed 30 mph    
Visibility 10 miles    
Events      
T = Trace of Precipitation, MM = Missing Value Source: NWS Daily Summary

Daily Weather History Graph

Daily Weather History Graph

Search for Another Location

Airport:

Trip Planner

Search our weather history database for the weather conditions in past years. The results will help you decide how hot, cold, wet, or windy it might be!

Date:

Astronomy

Mar. 11, 2013 Rise Set
Actual Time 8:01 AM MDT 7:45 PM MDT
Civil Twilight 7:33 AM MDT 8:13 PM MDT
Nautical Twilight 7:00 AM MDT 8:46 PM MDT
Astronomical Twilight 6:27 AM MDT 9:20 PM MDT
Moon 7:37 AM MDT (3/11) 8:04 PM MDT (3/11)
Length of Visible Light 12h 40m
Length of Day
11h 43m
Waning Crescent, 0% of the Moon is Illuminated
Mar 11
Waning Crescent
Mar 11
New
Mar 19
First Quarter
Mar 27
Full
Apr 2
Last Quarter

Hourly Weather History & Observations

Time (MDT) Temp. Windchill Dew Point Humidity Pressure Visibility Wind Dir Wind Speed Gust Speed Precip Events Conditions
7:51 AM 37.4 °F 31.4 °F 17.6 °F 45% 30.24 in 10.0 mi West 8.1 mph - N/A   Scattered Clouds
7:58 AM 37.4 °F 31.4 °F 17.6 °F 45% 30.26 in 10.0 mi West 8.1 mph - N/A   Scattered Clouds
8:58 AM 38.8 °F 32.6 °F 22.5 °F 52% 30.28 in 10.0 mi West 9.2 mph - N/A   Scattered Clouds
9:53 AM 48.2 °F - 30.2 °F 50% 30.26 in 10.0 mi NW 16.1 mph - N/A   Mostly Cloudy
9:58 AM 48.6 °F - 30.6 °F 50% 30.26 in 10.0 mi NW 19.6 mph - N/A   Mostly Cloudy
10:58 AM 50.7 °F - 35.1 °F 55% 30.26 in 10.0 mi NNW 23.0 mph - N/A   Scattered Clouds
11:58 AM 52.9 °F - 34.9 °F 50% 30.25 in 10.0 mi NW 21.9 mph 28.8 mph N/A   Scattered Clouds
12:13 PM 53.6 °F - 35.6 °F 51% 30.25 in 10.0 mi NW 20.7 mph 27.6 mph N/A   Mostly Cloudy
12:38 PM 53.6 °F - 35.6 °F 51% 30.25 in 10.0 mi NW 23.0 mph 27.6 mph N/A   Mostly Cloudy
12:58 PM 53.1 °F - 35.4 °F 51% 30.25 in 10.0 mi NW 20.7 mph - N/A   Mostly Cloudy
1:28 PM 53.6 °F - 33.8 °F 47% 30.23 in 10.0 mi NW 21.9 mph 27.6 mph N/A   Mostly Cloudy
1:58 PM 54.7 °F - 34.0 °F 46% 30.23 in 10.0 mi NW 20.7 mph 27.6 mph N/A   Mostly Cloudy
2:08 PM 53.6 °F - 32.0 °F 44% 30.23 in 10.0 mi NW 20.7 mph 26.5 mph N/A   Overcast
2:58 PM 56.7 °F - 33.8 °F 42% 30.21 in 10.0 mi NW 19.6 mph 26.5 mph N/A   Scattered Clouds
3:55 PM 57.2 °F - 32.0 °F 38% 30.19 in 10.0 mi WNW 20.7 mph 29.9 mph N/A   Scattered Clouds
4:58 PM 56.8 °F - 31.6 °F 38% 30.18 in 10.0 mi NW 24.2 mph 28.8 mph N/A   Mostly Cloudy
5:08 PM 57.2 °F - 32.0 °F 38% 30.18 in 10.0 mi NW 24.2 mph 29.9 mph N/A   Mostly Cloudy
5:18 PM 57.2 °F - 32.0 °F 38% 30.18 in 10.0 mi NW 21.9 mph 28.8 mph N/A   Scattered Clouds
5:58 PM 56.3 °F - 30.7 °F 38% 30.17 in 10.0 mi NW 21.9 mph 28.8 mph N/A   Clear
6:58 PM 54.1 °F - 29.8 °F 39% 30.18 in 10.0 mi NNW 16.1 mph - N/A   Scattered Clouds
7:43 PM 51.8 °F - 32.0 °F 47% 30.20 in 10.0 mi NW 10.4 mph - N/A   Mostly Cloudy
7:58 PM 52.0 °F - 30.4 °F 44% 30.22 in 10.0 mi NW 8.1 mph - N/A   Mostly Cloudy
8:58 PM 48.7 °F - 30.2 °F 49% 30.23 in 10.0 mi West 6.9 mph - N/A   Overcast
9:58 PM 47.1 °F - 29.5 °F 50% 30.23 in 10.0 mi NW 8.1 mph - N/A   Overcast
10:08 PM 46.4 °F 41.5 °F 28.4 °F 50% 30.22 in 10.0 mi NW 10.4 mph - N/A   Mostly Cloudy
10:58 PM 41.9 °F 38.2 °F 27.7 °F 57% 30.25 in 10.0 mi NNW 5.8 mph - N/A   Clear
11:58 PM 38.1 °F 33.7 °F 26.8 °F 64% 30.26 in 10.0 mi NW 5.8 mph - N/A   Clear